Time,TemperatureF,DewpointF,PressureIn,WindDirection,WindDirectionDegrees,WindSpeedMPH,WindSpeedGustMPH,Humidity,HourlyPrecipIn,Conditions,Clouds,dailyrainin,SoftwareType,DateUTC
2013-02-10 00:01:00,20.0,18.0,30.16,South,184,3.0,-999.0,91,-99.99,,,-99.99,,2013-02-10 05:01:00,
2013-02-10 00:11:00,20.0,18.0,30.16,South,184,3.0,-999.0,91,-99.99,,,-99.99,,2013-02-10 05:11:00,
2013-02-10 00:22:00,20.0,18.0,30.15,SSW,209,3.0,-999.0,92,-99.99,,,-99.99,,2013-02-10 05:22:00,
2013-02-10 00:31:00,20.0,18.0,30.16,SW,223,2.0,-999.0,92,-99.99,,,-99.99,,2013-02-10 05:31:00,
2013-02-10 00:41:00,20.0,18.0,30.16,SW,223,2.0,-999.0,92,-99.99,,,-99.99,,2013-02-10 05:41:00,
2013-02-10 00:52:00,20.0,18.0,30.16,West,261,2.0,-999.0,92,-99.99,,,-99.99,,2013-02-10 05:52:00,
2013-02-10 01:01:00,20.0,18.0,30.16,SW,217,1.0,-999.0,92,-99.99,,,-99.99,,2013-02-10 06:01:00,
2013-02-10 01:11:00,20.0,18.0,30.16,SW,217,1.0,-999.0,92,-99.99,,,-99.99,,2013-02-10 06:11:00,
2013-02-10 01:21:00,20.0,18.0,30.16,SSW,201,1.0,-999.0,92,-99.99,,,-99.99,,2013-02-10 06:21:00,
2013-02-10 01:32:00,20.0,18.0,30.16,SSW,202,0.0,-999.0,93,-99.99,,,-99.99,,2013-02-10 06:32:00,
2013-02-10 01:42:00,20.0,18.0,30.16,SSW,202,0.0,-999.0,93,-99.99,,,-99.99,,2013-02-10 06:42:00,
2013-02-10 01:51:00,20.0,18.0,30.15,SSW,198,0.0,-999.0,93,-99.99,,,-99.99,,2013-02-10 06:51:00,
2013-02-10 02:01:00,20.0,18.0,30.15,SSW,200,0.0,-999.0,93,-99.99,,,-99.99,,2013-02-10 07:01:00,
2013-02-10 02:11:00,20.0,18.0,30.15,SSW,200,0.0,-999.0,93,-99.99,,,-99.99,,2013-02-10 07:11:00,
2013-02-10 02:21:00,20.0,18.0,30.14,SSW,200,0.0,-999.0,93,-99.99,,,-99.99,,2013-02-10 07:21:00,
2013-02-10 02:31:00,20.0,18.0,30.13,SSW,200,0.0,-999.0,93,-99.99,,,-99.99,,2013-02-10 07:31:00,
2013-02-10 02:41:00,20.0,18.0,30.13,SSW,200,0.0,-999.0,93,-99.99,,,-99.99,,2013-02-10 07:41:00,
2013-02-10 02:51:00,20.0,18.0,30.14,SSW,200,0.0,-999.0,93,-99.99,,,-99.99,,2013-02-10 07:51:00,
2013-02-10 03:01:00,20.0,18.0,30.14,SSW,200,0.0,-999.0,93,-99.99,,,-99.99,,2013-02-10 08:01:00,
2013-02-10 03:11:00,20.0,18.0,30.14,SSW,200,0.0,-999.0,93,-99.99,,,-99.99,,2013-02-10 08:11:00,
2013-02-10 03:21:00,20.0,18.0,30.13,SSW,200,0.0,-999.0,93,-99.99,,,-99.99,,2013-02-10 08:21:00,
2013-02-10 03:32:00,20.0,18.0,30.13,SSW,200,0.0,-999.0,93,-99.99,,,-99.99,,2013-02-10 08:32:00,
2013-02-10 03:43:00,20.0,18.0,30.13,SSW,200,0.0,-999.0,93,-99.99,,,-99.99,,2013-02-10 08:43:00,
2013-02-10 03:52:00,20.0,18.0,30.12,SSW,200,0.0,-999.0,93,-99.99,,,-99.99,,2013-02-10 08:52:00,
2013-02-10 04:02:00,20.0,18.0,30.12,SSW,200,0.0,-999.0,93,-99.99,,,-99.99,,2013-02-10 09:02:00,
2013-02-10 04:11:00,20.0,18.0,30.12,SSW,200,0.0,-999.0,93,-99.99,,,-99.99,,2013-02-10 09:11:00,
2013-02-10 04:21:00,20.0,19.0,30.11,SSW,200,0.0,-999.0,94,-99.99,,,-99.99,,2013-02-10 09:21:00,
2013-02-10 04:32:00,20.0,19.0,30.11,SSW,200,0.0,-999.0,94,-99.99,,,-99.99,,2013-02-10 09:32:00,
2013-02-10 04:41:00,20.0,19.0,30.11,SSW,200,0.0,-999.0,94,-99.99,,,-99.99,,2013-02-10 09:41:00,
2013-02-10 04:51:00,20.0,19.0,30.11,SSW,200,0.0,-999.0,94,-99.99,,,-99.99,,2013-02-10 09:51:00,
2013-02-10 05:01:00,20.0,19.0,30.10,SSW,200,1.0,-999.0,94,-99.99,,,-99.99,,2013-02-10 10:01:00,
2013-02-10 05:11:00,20.0,19.0,30.10,SSW,200,1.0,-999.0,94,-99.99,,,-99.99,,2013-02-10 10:11:00,
2013-02-10 05:21:00,20.0,19.0,30.10,SSW,200,1.0,-999.0,94,-99.99,,,-99.99,,2013-02-10 10:21:00,
2013-02-10 05:31:00,20.0,19.0,30.10,SSW,193,2.0,-999.0,94,-99.99,,,-99.99,,2013-02-10 10:31:00,
2013-02-10 05:42:00,20.0,19.0,30.10,SSW,193,2.0,-999.0,94,-99.99,,,-99.99,,2013-02-10 10:42:00,
2013-02-10 05:51:00,21.0,20.0,30.10,South,185,2.0,-999.0,94,-99.99,,,-99.99,,2013-02-10 10:51:00,
2013-02-10 06:01:00,21.0,20.0,30.09,South,186,1.0,-999.0,94,-99.99,,,-99.99,,2013-02-10 11:01:00,
2013-02-10 06:11:00,21.0,20.0,30.09,South,186,1.0,-999.0,94,-99.99,,,-99.99,,2013-02-10 11:11:00,
2013-02-10 06:21:00,21.0,20.0,30.09,SSW,204,1.0,-999.0,94,-99.99,,,-99.99,,2013-02-10 11:21:00,
2013-02-10 06:32:00,21.0,20.0,30.09,SSW,205,2.0,-999.0,94,-99.99,,,-99.99,,2013-02-10 11:32:00,
2013-02-10 06:42:00,21.0,20.0,30.09,SSW,205,2.0,-999.0,94,-99.99,,,-99.99,,2013-02-10 11:42:00,
2013-02-10 06:52:00,21.0,20.0,30.08,SSW,202,1.0,-999.0,94,-99.99,,,-99.99,,2013-02-10 11:52:00,
2013-02-10 07:01:00,21.0,20.0,30.08,SSW,192,1.0,-999.0,94,-99.99,,,-99.99,,2013-02-10 12:01:00,
2013-02-10 07:12:00,21.0,20.0,30.08,SSW,192,1.0,-999.0,94,-99.99,,,-99.99,,2013-02-10 12:12:00,
2013-02-10 07:21:00,21.0,20.0,30.07,SSW,192,0.0,-999.0,94,-99.99,,,-99.99,,2013-02-10 12:21:00,
2013-02-10 07:32:00,21.0,20.0,30.07,SSW,192,0.0,-999.0,94,-99.99,,,-99.99,,2013-02-10 12:32:00,
2013-02-10 07:42:00,21.0,20.0,30.07,SSW,192,0.0,-999.0,94,-99.99,,,-99.99,,2013-02-10 12:42:00,
2013-02-10 07:52:00,21.0,20.0,30.06,South,184,1.0,-999.0,94,-99.99,,,-99.99,,2013-02-10 12:52:00,
2013-02-10 08:02:00,21.0,20.0,30.07,South,178,2.0,-999.0,94,-99.99,,,-99.99,,2013-02-10 13:02:00,
2013-02-10 08:11:00,21.0,20.0,30.07,South,178,2.0,-999.0,94,-99.99,,,-99.99,,2013-02-10 13:11:00,
2013-02-10 08:21:00,21.0,20.0,30.07,South,178,2.0,-999.0,94,-99.99,,,-99.99,,2013-02-10 13:21:00,
2013-02-10 08:31:00,21.0,20.0,30.06,SSE,167,4.0,-999.0,94,-99.99,,,-99.99,,2013-02-10 13:31:00,
2013-02-10 08:42:00,21.0,20.0,30.06,SSE,167,4.0,-999.0,94,-99.99,,,-99.99,,2013-02-10 13:42:00,
2013-02-10 08:52:00,21.0,20.0,30.06,South,191,4.0,-999.0,94,-99.99,,,-99.99,,2013-02-10 13:52:00,
2013-02-10 09:02:00,21.0,20.0,30.04,South,180,3.0,-999.0,94,-99.99,,,-99.99,,2013-02-10 14:02:00,
2013-02-10 09:11:00,21.0,20.0,30.04,South,180,3.0,-999.0,94,-99.99,,,-99.99,,2013-02-10 14:11:00,
2013-02-10 09:21:00,21.0,20.0,30.04,South,181,0.0,-999.0,94,-99.99,,,-99.99,,2013-02-10 14:21:00,
2013-02-10 09:32:00,21.0,20.0,30.03,South,181,0.0,-999.0,94,-99.99,,,-99.99,,2013-02-10 14:32:00,
2013-02-10 09:41:00,21.0,20.0,30.03,South,181,0.0,-999.0,94,-99.99,,,-99.99,,2013-02-10 14:41:00,
2013-02-10 09:52:00,22.0,21.0,30.02,South,181,0.0,-999.0,94,-99.99,,,-99.99,,2013-02-10 14:52:00,
2013-02-10 10:02:00,22.0,21.0,30.01,SSE,162,2.0,-999.0,94,-99.99,,,-99.99,,2013-02-10 15:02:00,
2013-02-10 10:11:00,22.0,21.0,30.01,SSE,162,2.0,-999.0,94,-99.99,,,-99.99,,2013-02-10 15:11:00,
2013-02-10 10:21:00,22.0,21.0,30.00,SSE,150,2.0,-999.0,94,-99.99,,,-99.99,,2013-02-10 15:21:00,
2013-02-10 10:32:00,22.0,21.0,29.98,SE,142,1.0,-999.0,94,-99.99,,,-99.99,,2013-02-10 15:32:00,
2013-02-10 10:42:00,22.0,21.0,29.98,SE,142,1.0,-999.0,94,-99.99,,,-99.99,,2013-02-10 15:42:00,
2013-02-10 10:52:00,23.0,22.0,29.97,SSE,157,3.0,-999.0,94,-99.99,,,-99.99,,2013-02-10 15:52:00,
2013-02-10 11:02:00,23.0,22.0,29.96,ESE,122,2.0,-999.0,94,-99.99,,,-99.99,,2013-02-10 16:02:00,
2013-02-10 11:11:00,24.0,23.0,29.95,SSE,152,3.0,-999.0,95,-99.99,,,-99.99,,2013-02-10 16:11:00,
2013-02-10 11:22:00,24.0,23.0,29.95,SSE,152,3.0,-999.0,95,-99.99,,,-99.99,,2013-02-10 16:22:00,
2013-02-10 11:32:00,24.0,23.0,29.94,SE,130,3.0,-999.0,95,-99.99,,,-99.99,,2013-02-10 16:32:00,
2013-02-10 11:42:00,25.0,24.0,29.94,South,171,3.0,-999.0,95,-99.99,,,-99.99,,2013-02-10 16:42:00,
2013-02-10 11:52:00,25.0,24.0,29.94,South,171,3.0,-999.0,95,-99.99,,,-99.99,,2013-02-10 16:52:00,
2013-02-10 12:01:00,25.0,24.0,29.95,SE,137,4.0,-999.0,95,-99.99,,,-99.99,,2013-02-10 17:01:00,
2013-02-10 12:11:00,25.0,24.0,29.95,SE,137,4.0,-999.0,95,-99.99,,,-99.99,,2013-02-10 17:11:00,
2013-02-10 12:21:00,26.0,25.0,29.96,South,180,6.0,-999.0,95,-99.99,,,-99.99,,2013-02-10 17:21:00,
2013-02-10 12:32:00,26.0,25.0,29.97,SSE,159,5.0,-999.0,96,-99.99,,,-99.99,,2013-02-10 17:32:00,
2013-02-10 12:42:00,27.0,26.0,29.97,SSE,159,5.0,-999.0,96,-99.99,,,-99.99,,2013-02-10 17:42:00,
2013-02-10 12:52:00,27.0,26.0,29.97,SSE,159,5.0,-999.0,96,-99.99,,,-99.99,,2013-02-10 17:52:00,
2013-02-10 13:02:00,27.0,26.0,29.95,SSE,167,5.0,-999.0,96,-99.99,,,-99.99,,2013-02-10 18:02:00,
2013-02-10 13:11:00,27.0,26.0,29.93,South,182,4.0,-999.0,96,-99.99,,,-99.99,,2013-02-10 18:11:00,
2013-02-10 13:22:00,27.0,26.0,29.93,South,182,4.0,-999.0,96,-99.99,,,-99.99,,2013-02-10 18:22:00,
2013-02-10 13:32:00,27.0,26.0,29.92,SSE,163,5.0,-999.0,96,-99.99,,,-99.99,,2013-02-10 18:32:00,
2013-02-10 13:42:00,27.0,26.0,29.92,SSE,163,5.0,-999.0,96,-99.99,,,-99.99,,2013-02-10 18:42:00,
2013-02-10 13:52:00,28.0,27.0,29.90,SSW,194,4.0,-999.0,96,-99.99,,,-99.99,,2013-02-10 18:52:00,
2013-02-10 14:02:00,28.0,27.0,29.88,South,188,4.0,-999.0,96,-99.99,,,-99.99,,2013-02-10 19:02:00,
2013-02-10 14:11:00,28.0,27.0,29.88,SSW,193,5.0,-999.0,96,-99.99,,,-99.99,,2013-02-10 19:11:00,
2013-02-10 14:22:00,28.0,27.0,29.88,SSW,193,5.0,-999.0,96,-99.99,,,-99.99,,2013-02-10 19:22:00,
2013-02-10 14:32:00,28.0,27.0,29.87,SSE,166,5.0,-999.0,96,-99.99,,,-99.99,,2013-02-10 19:32:00,
2013-02-10 14:42:00,29.0,28.0,29.85,South,169,4.0,-999.0,96,-99.99,,,-99.99,,2013-02-10 19:42:00,
2013-02-10 14:52:00,29.0,28.0,29.85,South,169,4.0,-999.0,96,-99.99,,,-99.99,,2013-02-10 19:52:00,
2013-02-10 15:02:00,29.0,28.0,29.83,SE,127,4.0,-999.0,96,-99.99,,,-99.99,,2013-02-10 20:02:00,
2013-02-10 15:11:00,29.0,28.0,29.83,SE,127,4.0,-999.0,96,-99.99,,,-99.99,,2013-02-10 20:11:00,
2013-02-10 15:22:00,29.0,28.0,29.80,SE,132,5.0,-999.0,95,-99.99,,,-99.99,,2013-02-10 20:22:00,
2013-02-10 15:32:00,29.0,28.0,29.79,ESE,117,4.0,-999.0,95,-99.99,,,-99.99,,2013-02-10 20:32:00,
2013-02-10 15:42:00,29.0,28.0,29.78,ESE,120,4.0,-999.0,95,-99.99,,,-99.99,,2013-02-10 20:42:00,
2013-02-10 15:52:00,29.0,28.0,29.78,ESE,120,4.0,-999.0,95,-99.99,,,-99.99,,2013-02-10 20:52:00,
2013-02-10 16:02:00,29.0,27.0,29.76,SE,131,2.0,-999.0,94,-99.99,,,-99.99,,2013-02-10 21:02:00,
2013-02-10 16:11:00,29.0,27.0,29.76,SE,131,2.0,-999.0,94,-99.99,,,-99.99,,2013-02-10 21:11:00,
2013-02-10 16:21:00,29.0,27.0,29.75,East,90,4.0,-999.0,93,-99.99,,,-99.99,,2013-02-10 21:21:00,
2013-02-10 16:32:00,29.0,27.0,29.75,East,90,4.0,-999.0,93,-99.99,,,-99.99,,2013-02-10 21:32:00,
2013-02-10 16:42:00,29.0,27.0,29.72,SE,129,4.0,-999.0,92,-99.99,,,-99.99,,2013-02-10 21:42:00,
2013-02-10 16:51:00,29.0,27.0,29.72,SE,129,4.0,-999.0,92,-99.99,,,-99.99,,2013-02-10 21:51:00,
2013-02-10 17:02:00,29.0,27.0,29.70,ENE,74,4.0,-999.0,93,-99.99,,,-99.99,,2013-02-10 22:02:00,
2013-02-10 17:11:00,29.0,27.0,29.70,ESE,121,4.0,-999.0,92,-99.99,,,-99.99,,2013-02-10 22:11:00,
2013-02-10 17:21:00,29.0,27.0,29.70,ESE,121,4.0,-999.0,92,-99.99,,,-99.99,,2013-02-10 22:21:00,
2013-02-10 17:32:00,29.0,27.0,29.68,ESE,108,3.0,-999.0,92,-99.99,,,-99.99,,2013-02-10 22:32:00,
2013-02-10 17:42:00,29.0,27.0,29.66,SE,124,5.0,-999.0,91,-99.99,,,-99.99,,2013-02-10 22:42:00,
2013-02-10 17:52:00,29.0,27.0,29.66,SE,124,5.0,-999.0,91,-99.99,,,-99.99,,2013-02-10 22:52:00,
2013-02-10 18:02:00,29.0,27.0,29.64,ESE,119,7.0,-999.0,91,-99.99,,,-99.99,,2013-02-10 23:02:00,
2013-02-10 18:11:00,29.0,27.0,29.64,ESE,119,7.0,-999.0,91,-99.99,,,-99.99,,2013-02-10 23:11:00,
2013-02-10 18:22:00,29.0,27.0,29.63,SE,133,5.0,-999.0,92,-99.99,,,-99.99,,2013-02-10 23:22:00,
2013-02-10 18:32:00,29.0,27.0,29.61,ESE,121,5.0,-999.0,93,-99.99,,,-99.99,,2013-02-10 23:32:00,
2013-02-10 18:42:00,29.0,27.0,29.60,SSE,155,5.0,-999.0,94,-99.99,,,-99.99,,2013-02-10 23:42:00,
2013-02-10 18:52:00,29.0,27.0,29.60,SSE,155,5.0,-999.0,94,-99.99,,,-99.99,,2013-02-10 23:52:00,
2013-02-10 19:02:00,30.0,28.0,29.61,SE,130,7.0,-999.0,94,-99.99,,,-99.99,,2013-02-11 00:02:00,
2013-02-10 19:11:00,30.0,28.0,29.59,SE,146,6.0,-999.0,94,-99.99,,,-99.99,,2013-02-11 00:11:00,
2013-02-10 19:22:00,30.0,28.0,29.59,SE,146,6.0,-999.0,94,-99.99,,,-99.99,,2013-02-11 00:22:00,
2013-02-10 19:32:00,30.0,29.0,29.58,SE,136,4.0,-999.0,95,-99.99,,,-99.99,,2013-02-11 00:32:00,
2013-02-10 19:42:00,30.0,29.0,29.58,SSE,155,5.0,-999.0,95,-99.99,,,-99.99,,2013-02-11 00:42:00,
2013-02-10 19:51:00,30.0,29.0,29.58,SSE,155,5.0,-999.0,95,-99.99,,,-99.99,,2013-02-11 00:51:00,
2013-02-10 20:01:00,30.0,29.0,29.57,SSE,150,5.0,-999.0,95,-99.99,,,-99.99,,2013-02-11 01:01:00,
2013-02-10 20:11:00,30.0,29.0,29.57,SSE,150,5.0,-999.0,95,-99.99,,,-99.99,,2013-02-11 01:11:00,
2013-02-10 20:21:00,30.0,29.0,29.56,SE,134,4.0,-999.0,95,-99.99,,,-99.99,,2013-02-11 01:21:00,
2013-02-10 20:32:00,30.0,29.0,29.55,SSW,194,5.0,-999.0,95,-99.99,,,-99.99,,2013-02-11 01:32:00,
2013-02-10 20:42:00,31.0,30.0,29.54,SSE,163,6.0,-999.0,95,-99.99,,,-99.99,,2013-02-11 01:42:00,
2013-02-10 20:52:00,31.0,30.0,29.54,SSE,163,6.0,-999.0,95,-99.99,,,-99.99,,2013-02-11 01:52:00,
2013-02-10 21:01:00,31.0,30.0,29.54,SSE,163,6.0,-999.0,95,-99.99,,,-99.99,,2013-02-11 02:01:00,
2013-02-10 21:11:00,31.0,30.0,29.54,SSE,163,6.0,-999.0,95,-99.99,,,-99.99,,2013-02-11 02:11:00,
2013-02-10 21:21:00,31.0,30.0,29.54,SSE,163,6.0,-999.0,95,-99.99,,,-99.99,,2013-02-11 02:21:00,
2013-02-10 21:32:00,31.0,30.0,29.52,South,175,7.0,-999.0,95,-99.99,,,-99.99,,2013-02-11 02:32:00,
2013-02-10 21:42:00,31.0,30.0,29.51,SSE,159,6.0,-999.0,95,-99.99,,,-99.99,,2013-02-11 02:42:00,
2013-02-10 21:52:00,31.0,30.0,29.51,SSE,159,6.0,-999.0,95,-99.99,,,-99.99,,2013-02-11 02:52:00,
2013-02-10 22:02:00,31.0,30.0,29.51,SSE,159,6.0,-999.0,95,-99.99,,,-99.99,,2013-02-11 03:02:00,
2013-02-10 22:11:00,31.0,30.0,29.51,SSE,159,6.0,-999.0,95,-99.99,,,-99.99,,2013-02-11 03:11:00,
2013-02-10 22:21:00,31.0,30.0,29.50,SSE,150,8.0,-999.0,95,-99.99,,,-99.99,,2013-02-11 03:21:00,
2013-02-10 22:32:00,31.0,30.0,29.47,South,185,7.0,-999.0,95,-99.99,,,-99.99,,2013-02-11 03:32:00,
2013-02-10 22:42:00,31.0,30.0,29.46,SSE,151,7.0,-999.0,95,-99.99,,,-99.99,,2013-02-11 03:42:00,
2013-02-10 22:52:00,31.0,30.0,29.46,SSE,151,7.0,-999.0,95,-99.99,,,-99.99,,2013-02-11 03:52:00,
2013-02-10 23:01:00,31.0,30.0,29.45,South,181,7.0,-999.0,95,-99.99,,,-99.99,,2013-02-11 04:01:00,
2013-02-10 23:11:00,31.0,30.0,29.45,South,181,7.0,-999.0,95,-99.99,,,-99.99,,2013-02-11 04:11:00,
2013-02-10 23:21:00,32.0,31.0,29.45,SE,124,7.0,-999.0,96,-99.99,,,-99.99,,2013-02-11 04:21:00,
2013-02-10 23:32:00,32.0,31.0,29.44,SSE,159,5.0,-999.0,96,-99.99,,,-99.99,,2013-02-11 04:32:00,
2013-02-10 23:42:00,32.0,31.0,29.44,SSE,159,5.0,-999.0,96,-99.99,,,-99.99,,2013-02-11 04:42:00,
2013-02-10 23:51:00,32.0,31.0,29.43,South,171,5.0,-999.0,96,-99.99,,,-99.99,,2013-02-11 04:51:00,